Lafayette, IN

10:04 AM EST on January 22, 2018 (GMT -0500)
Purdue Univ

Weather History for KLAF - June, 2012

Change the Weather History Date:

Tuesday, June 19, 2012

  Actual Average Record
Temperature  
Mean Temperature 82 °F 73 °F  
Max Temperature 93 °F 84 °F 98 °F (1964)
Min Temperature 70 °F 62 °F 45 °F (1965)
Degree Days  
Heating Degree Days 0 0  
Month to date heating degree days 20 22  
Since 1 June heating degree days 20 22  
Since 1 July heating degree days 4399 5672  
Cooling Degree Days 17 8  
Month to date cooling degree days 114 117  
Year to date cooling degree days 310 194  
Since 1 June cooling degree days 114 117  
Growing Degree Days 32 (Base 50)    
Moisture  
Dew Point 61 °F    
Average Humidity 53    
Maximum Humidity 73    
Minimum Humidity 32    
Precipitation  
Precipitation 0.00 in 0.13 in 1.05 in (1958)
Month to date precipitation 0.22 2.62  
Year to date precipitation 10.97 16.64  
Sea Level Pressure  
Sea Level Pressure 29.98 in    
Wind  
Wind Speed 9 mph (SW)    
Max Wind Speed 17 mph    
Max Gust Speed 25 mph    
Visibility 10 miles    
Events      
T = Trace of Precipitation, MM = Missing Value Source: NWS Daily Summary

Daily Weather History Graph

Daily Weather History Graph

Search for Another Location

Airport or City:

Trip Planner

Search our weather history database for the weather conditions in past years. The results will help you decide how hot, cold, wet, or windy it might be!

Date:

Astronomy

Jun. 19, 2012 Rise Set
Actual Time 6:17 AM EDT 9:21 PM EDT
Civil Twilight 5:44 AM EDT 9:54 PM EDT
Nautical Twilight 5:01 AM EDT 10:36 PM EDT
Astronomical Twilight 4:12 AM EDT 11:26 PM EDT
Moon 6:21 AM EDT (6/19) 9:24 PM EDT (6/19)
Length of Visible Light 16h 10m
Length of Day
15h 03m
New Moon, 0% of the Moon is Illuminated
Jun 19
New Moon
Jun 26
First Quarter
Jul 3
Full
Jul 10
Last Quarter
Jul 19
New

Hourly Weather History & Observations

Time (EDT) Temp. Heat Index Dew Point Humidity Pressure Visibility Wind Dir Wind Speed Gust Speed Precip Events Conditions
12:54 AM 77.0 °F - 61.0 °F 58% 29.91 in 10.0 mi SSW 4.6 mph - N/A   Clear
1:54 AM 75.0 °F - 61.0 °F 62% 29.92 in 10.0 mi SSW 4.6 mph - N/A   Clear
2:54 AM 73.9 °F - 60.1 °F 62% 29.91 in 10.0 mi SW 4.6 mph - N/A   Clear
3:54 AM 73.9 °F - 60.1 °F 62% 29.91 in 10.0 mi SSW 5.8 mph - N/A   Clear
4:54 AM 72.0 °F - 60.1 °F 66% 29.93 in 10.0 mi Variable 3.5 mph - N/A   Clear
5:54 AM 70.0 °F - 60.1 °F 71% 29.94 in 10.0 mi SW 3.5 mph - N/A   Clear
6:54 AM 71.1 °F - 61.0 °F 70% 29.95 in 10.0 mi SW 3.5 mph - N/A   Clear
7:54 AM 73.9 °F - 62.1 °F 66% 29.98 in 10.0 mi SW 4.6 mph - N/A   Clear
8:54 AM 79.0 °F - 63.0 °F 58% 29.99 in 10.0 mi WSW 10.4 mph - N/A   Clear
9:54 AM 81.0 °F 82.5 °F 64.0 °F 56% 30.00 in 10.0 mi WSW 16.1 mph 25.3 mph N/A   Clear
10:54 AM 84.0 °F 85.4 °F 64.0 °F 51% 30.01 in 10.0 mi WSW 18.4 mph 21.9 mph N/A   Clear
11:54 AM 86.0 °F 87.3 °F 64.0 °F 48% 30.03 in 10.0 mi SW 13.8 mph 19.6 mph N/A   Clear
12:54 PM 89.1 °F 90.0 °F 63.0 °F 42% 30.03 in 10.0 mi SW 12.7 mph 20.7 mph N/A   Clear
1:54 PM 91.0 °F 91.9 °F 63.0 °F 39% 30.02 in 10.0 mi SW 12.7 mph 19.6 mph N/A   Partly Cloudy
2:54 PM 90.0 °F 90.6 °F 63.0 °F 40% 30.01 in 10.0 mi SW 11.5 mph 19.6 mph N/A   Scattered Clouds
3:54 PM 93.0 °F 93.8 °F 62.1 °F 36% 29.99 in 10.0 mi South 10.4 mph 18.4 mph N/A   Scattered Clouds
4:54 PM 91.9 °F 91.8 °F 61.0 °F 35% 29.98 in 10.0 mi SSW 15.0 mph 21.9 mph N/A   Mostly Cloudy
5:54 PM 91.9 °F 90.8 °F 57.9 °F 32% 29.97 in 10.0 mi SSW 15.0 mph 23.0 mph N/A   Mostly Cloudy
6:54 PM 90.0 °F 88.6 °F 57.0 °F 33% 29.97 in 10.0 mi SSW 12.7 mph 20.7 mph N/A   Clear
7:54 PM 88.0 °F 86.7 °F 57.0 °F 35% 29.98 in 10.0 mi SSW 9.2 mph 17.3 mph N/A   Clear
8:54 PM 84.0 °F 83.8 °F 59.0 °F 43% 29.99 in 10.0 mi South 5.8 mph - N/A   Clear
9:54 PM 81.0 °F 81.3 °F 59.0 °F 47% 29.99 in 10.0 mi South 5.8 mph - N/A   Clear
10:54 PM 80.1 °F 80.9 °F 60.1 °F 50% 30.01 in 10.0 mi South 6.9 mph - N/A   Clear
11:54 PM 79.0 °F - 60.1 °F 52% 30.02 in 10.0 mi South 6.9 mph - N/A   Clear